CW3467 Weather Reports


Display with metric or nautical units.
time (UTC)temp
F
wind
direction
speed
MPH
gust
MPH
rain 1hr
in
rain 24hr
in
rain mn
in
humidity
%
barometer
mb
20260505100004 56 307 2.0 6.0 0.00 0.14 0.00 89 1012.3
20260505095503 55 339 2.0 6.0 0.00 0.14 0.00 87 1012.6
20260505095003 55 10 1.0 6.0 0.00 0.14 0.00 89 1012.4
20260505094504 54 47 2.0 6.0 0.00 0.14 0.00 90 1012.3
20260505094004 54 55 2.0 6.0 0.00 0.14 0.00 89 1012.4
20260505093503 53 53 1.0 6.0 0.00 0.14 0.00 92 1012.7
20260505093004 52 344 1.0 4.0 0.00 0.14 0.00 89 1012.6
20260505092504 53 313 1.0 4.0 0.00 0.14 0.00 88 1012.7
20260505092025 54 41 1.0 4.0 0.00 0.14 0.00 90 1012.9
20260505091525 54 271 1.0 4.0 0.00 0.14 0.00 88 1012.9
20260505091003 54 269 1.0 4.0 0.00 0.14 0.00 89 1012.6
20260505090503 53 268 1.0 4.0 0.00 0.14 0.00 89 1012.6
20260505090004 54 271 1.0 4.0 0.00 0.14 0.00 91 1012.7
20260505085503 52 280 1.0 4.0 0.00 0.14 0.00 91 1012.7
20260505085003 52 268 1.0 6.0 0.00 0.14 0.00 93 1013.0
20260505084503 53 274 1.0 6.0 0.00 0.14 0.00 93 1012.7
20260505084004 52 268 1.0 3.0 0.00 0.14 0.00 97 1012.7
20260505083504 50 241 1.0 2.0 0.00 0.14 0.00 100 1012.6
20260505083004 49 238 1.0 2.0 0.00 0.14 0.00 100 1013.1
20260505082503 48 242 1.0 2.0 0.00 0.14 0.00 100 1013.0
20260505082004 48 256 1.0 3.0 0.00 0.14 0.00 100 1013.2
20260505081504 48 259 1.0 3.0 0.00 0.14 0.00 100 1013.2
20260505081003 48 254 1.0 3.0 0.00 0.14 0.00 100 1013.2
20260505080504 47 263 1.0 3.0 0.00 0.14 0.00 100 1013.3
20260505080004 47 258 1.0 2.0 0.00 0.14 0.00 100 1013.2
20260505075504 47 247 1.0 2.0 0.00 0.14 0.00 100 1013.2
20260505075003 47 248 1.0 2.0 0.00 0.14 0.00 100 1013.2
20260505074503 47 250 0.0 2.0 0.00 0.14 0.00 100 1013.2
20260505074003 46 239 0.0 2.0 0.00 0.14 0.00 100 1013.3
20260505073525 46 246 1.0 2.0 0.00 0.14 0.00 100 1013.3
20260505073024 47 252 1.0 2.0 0.00 0.14 0.00 100 1013.4
20260505072503 47 256 1.0 4.0 0.00 0.14 0.00 100 1013.3
20260505072003 46 255 1.0 4.0 0.00 0.14 0.00 100 1013.5
20260505071504 46 262 1.0 4.0 0.00 0.14 0.00 100 1013.3
20260505071003 46 251 1.0 3.0 0.00 0.14 0.00 100 1013.4
20260505070503 46 247 1.0 3.0 0.00 0.14 0.00 100 1013.4
20260505070004 46 271 1.0 3.0 0.00 0.14 0.00 100 1013.3
20260505065524 45 265 1.0 3.0 0.00 0.14 0.00 100 1013.2
20260505065003 46 249 1.0 2.0 0.00 0.14 0.00 100 1013.4
20260505064503 46 242 0.0 1.0 0.00 0.14 0.00 100 1013.2
20260505064003 45 242 0.0 1.0 0.00 0.14 0.00 100 1013.2
20260505063503 45 260 0.0 3.0 0.00 0.14 0.00 100 1013.4
20260505063003 45 261 0.0 3.0 0.00 0.14 0.00 100 1013.3
20260505062503 45 246 0.0 1.0 0.00 0.14 0.00 100 1013.3
20260505062003 45 241 0.0 1.0 0.00 0.14 0.00 100 1013.2
20260505061525 45 240 0.0 1.0 0.00 0.14 0.00 100 1013.1
20260505061003 45 253 0.0 1.0 0.00 0.14 0.00 100 1013.2
20260505060503 44 247 0.0 1.0 0.00 0.14 0.00 100 1013.3
20260505060003 45 238 0.0 1.0 0.00 0.14 0.00 100 1013.2
20260505055503 45 235 0.0 1.0 0.00 0.14 0.00 100 1013.1
20260505055024 45 235 0.0 1.0 0.00 0.14 0.00 100 1013.2
20260505054504 45 225 0.0 1.0 0.00 0.14 0.00 100 1013.3
20260505054003 44 225 0.0 1.0 0.00 0.14 0.00 100 1013.1
20260505053504 44 248 0.0 1.0 0.00 0.14 0.00 100 1013.4
20260505053003 44 248 0.0 1.0 0.00 0.14 0.00 100 1013.4
20260505052524 44 248 0.0 1.0 0.00 0.14 0.00 100 1013.2
20260505052003 44 245 0.0 1.0 0.00 0.14 0.00 100 1013.3
20260505051524 44 240 0.0 1.0 0.00 0.14 0.00 100 1013.1
20260505051024 44 245 0.0 1.0 0.00 0.14 0.00 100 1013.2
20260505050503 44 245 0.0 1.0 0.00 0.14 0.00 100 1013.2
20260505041503 44 246 0.0 2.0 0.00 0.17 0.00 100 1013.1
20260505041024 44 244 0.0 2.0 0.00 0.18 0.00 100 1013.2
20260505040504 44 243 0.0 2.0 0.00 0.20 0.00 100 1013.1
20260505040024 44 243 0.0 2.0 0.00 0.20 0.00 100 1012.7
20260505035503 44 252 0.0 3.0 0.00 0.20 0.00 100 1012.7
20260505035024 44 256 0.0 3.0 0.00 0.20 0.00 100 1012.9
20260505034503 44 240 0.0 1.0 0.00 0.20 0.00 100 1012.9
20260505034003 45 240 0.0 1.0 0.00 0.20 0.00 100 1013.1
20260505033503 45 0 0.0 0.0 0.00 0.20 0.00 100 1013.1
20260505033003 45 0 0.0 0.0 0.00 0.20 0.00 100 1013.3
20260505032504 44 0 0.0 0.0 0.00 0.20 0.00 100 1013.4
20260505032003 44 0 0.0 0.0 0.00 0.20 0.00 100 1013.3
20260505031503 45 0 0.0 0.0 0.00 0.20 0.00 100 1013.2
20260505031003 45 0 0.0 0.0 0.00 0.20 0.00 100 1013.3
20260505030524 44 0 0.0 0.0 0.00 0.20 0.00 100 1013.3
20260505030004 44 233 0.0 1.0 0.00 0.20 0.00 100 1013.4
20260505025524 44 233 0.0 1.0 0.00 0.20 0.00 100 1013.4
20260505025003 44 0 0.0 0.0 0.00 0.20 0.00 100 1013.3
20260505024503 44 0 0.0 0.0 0.00 0.20 0.00 100 1013.2
20260505024003 44 0 0.0 0.0 0.00 0.20 0.00 100 1013.2
20260505023503 44 0 0.0 0.0 0.00 0.20 0.00 100 1013.3
20260505023003 44 226 0.0 1.0 0.00 0.20 0.00 100 1013.1
20260505022503 44 225 0.0 1.0 0.00 0.20 0.00 100 1013.2
20260505022003 44 224 0.0 1.0 0.00 0.20 0.00 100 1013.1
20260505021503 44 0 0.0 0.0 0.00 0.20 0.00 100 1013.2
20260505021024 45 226 0.0 1.0 0.00 0.20 0.00 100 1013.4
20260505020503 45 226 0.0 1.0 0.00 0.20 0.00 100 1013.2
20260505020004 45 225 0.0 1.0 0.00 0.20 0.00 100 1013.1
20260505015503 44 228 0.0 1.0 0.00 0.20 0.00 100 1013.1
20260505015004 44 228 0.0 1.0 0.00 0.20 0.00 100 1013.1
20260505014503 44 230 0.0 1.0 0.00 0.20 0.00 100 1013.2
20260505014003 44 239 0.0 1.0 0.00 0.20 0.00 100 1013.1
20260505013503 44 0 0.0 0.0 0.00 0.20 0.00 100 1013.2
20260505013003 44 235 0.0 1.0 0.00 0.20 0.00 100 1013.1
20260505012503 45 235 0.0 1.0 0.00 0.20 0.00 100 1013.2
20260505012003 45 0 0.0 0.0 0.00 0.20 0.00 100 1013.1
20260505011503 45 233 0.0 1.0 0.00 0.20 0.00 100 1013.2
20260505011003 46 232 0.0 1.0 0.00 0.20 0.00 100 1013.4
20260505010503 46 202 0.0 1.0 0.00 0.20 0.00 100 1013.3
20260505010005 46 211 0.0 1.0 0.00 0.20 0.00 100 1013.4
20260505005505 46 226 0.0 1.0 0.00 0.20 0.00 100 1013.6
20260505005005 46 230 0.0 1.0 0.00 0.20 0.00 100 1013.5
20260505004505 46 227 0.0 1.0 0.00 0.20 0.00 100 1013.4
20260505004005 46 228 0.0 1.0 0.00 0.20 0.00 100 1013.5
20260505003526 46 227 0.0 1.0 0.00 0.20 0.00 100 1013.3
20260505003005 45 224 0.0 1.0 0.00 0.20 0.00 100 1013.4
20260505002505 45 225 0.0 1.0 0.00 0.20 0.00 100 1013.2
20260505002026 45 0 0.0 0.0 0.00 0.20 0.00 100 1013.4
20260505001505 46 225 0.0 1.0 0.00 0.20 0.00 100 1013.2
20260505001005 46 227 0.0 1.0 0.00 0.20 0.00 100 1013.3
20260505000526 46 230 0.0 1.0 0.00 0.20 0.00 100 1013.4
20260505000006 46 229 0.0 1.0 0.00 0.20 0.00 100 1013.3
20260504235505 46 229 0.0 1.0 0.00 0.20 0.20 100 1013.4
20260504235005 46 213 0.0 1.0 0.00 0.20 0.20 100 1013.4
20260504234505 46 204 0.0 1.0 0.00 0.20 0.20 100 1013.4
20260504234005 46 222 0.0 2.0 0.00 0.20 0.20 100 1013.3
20260504233505 47 226 1.0 2.0 0.00 0.20 0.20 100 1013.4
20260504233005 47 225 1.0 2.0 0.00 0.20 0.20 100 1013.5
20260504232505 47 225 1.0 2.0 0.00 0.20 0.20 100 1013.5
20260504232005 47 227 0.0 2.0 0.00 0.20 0.20 100 1013.4
20260504231505 46 236 0.0 1.0 0.00 0.20 0.20 100 1013.2
20260504231005 47 237 0.0 1.0 0.00 0.20 0.20 100 1013.2
20260504230505 47 233 0.0 1.0 0.00 0.20 0.20 100 1013.4
20260504230005 47 236 0.0 1.0 0.00 0.20 0.20 100 1013.4
20260504225505 47 237 0.0 1.0 0.00 0.20 0.20 100 1013.5
20260504225005 47 237 0.0 1.0 0.00 0.20 0.20 100 1013.4
20260504224505 47 224 0.0 1.0 0.00 0.20 0.20 100 1013.3
20260504224026 47 224 0.0 1.0 0.00 0.20 0.20 100 1013.3
20260504223505 47 225 0.0 1.0 0.00 0.20 0.20 100 1013.3
20260504223005 47 221 1.0 3.0 0.00 0.20 0.20 100 1013.1
20260504222526 47 223 1.0 3.0 0.00 0.20 0.20 100 1013.1
20260504222005 47 229 1.0 3.0 0.00 0.20 0.20 100 1013.3
20260504221505 48 231 0.0 2.0 0.00 0.20 0.20 100 1013.1
20260504221005 48 232 1.0 2.0 0.00 0.20 0.20 100 1013.3
20260504220505 48 233 1.0 2.0 0.00 0.20 0.20 100 1013.2
20260504220005 48 232 1.0 2.0 0.00 0.20 0.20 100 1013.2
20260504215505 48 228 0.0 2.0 0.00 0.20 0.20 100 1013.3
20260504215026 48 217 0.0 2.0 0.00 0.20 0.20 100 1013.4
20260504214505 48 198 0.0 1.0 0.00 0.20 0.20 100 1013.4
20260504214005 48 223 0.0 2.0 0.00 0.20 0.20 100 1013.5
20260504213505 48 223 1.0 2.0 0.00 0.20 0.20 100 1013.3
20260504213005 48 225 1.0 1.0 0.00 0.20 0.20 100 1013.3
20260504212505 48 225 1.0 2.0 0.00 0.20 0.20 100 1013.2
20260504212005 48 224 1.0 2.0 0.00 0.20 0.20 100 1013.3
20260504211505 48 227 0.0 1.0 0.00 0.20 0.20 100 1013.2
20260504211005 48 226 0.0 1.0 0.00 0.20 0.20 100 1013.0
20260504210505 48 229 0.0 1.0 0.00 0.20 0.20 100 1012.9
20260504210026 49 232 0.0 1.0 0.00 0.20 0.20 100 1013.0
20260504205526 49 230 0.0 1.0 0.00 0.20 0.20 100 1013.0
20260504205026 49 232 0.0 1.0 0.00 0.20 0.20 100 1012.6
20260504204505 49 237 0.0 1.0 0.00 0.20 0.20 100 1012.6
20260504204005 49 234 0.0 1.0 0.00 0.20 0.20 100 1012.9
20260504203526 49 228 0.0 1.0 0.00 0.20 0.20 100 1012.6
20260504203005 50 237 1.0 2.0 0.00 0.20 0.20 100 1012.6
20260504202505 50 265 1.0 3.0 0.01 0.20 0.20 100 1012.7
20260504202026 50 271 1.0 3.0 0.01 0.20 0.20 100 1012.9
20260504201505 50 236 0.0 2.0 0.01 0.20 0.20 100 1012.6
20260504201005 50 233 0.0 2.0 0.02 0.20 0.20 100 1012.5
20260504200505 50 226 0.0 1.0 0.03 0.20 0.20 100 1012.3
20260504200005 50 28 0.0 4.0 0.03 0.20 0.20 100 1012.3
20260504195505 50 44 2.0 8.0 0.05 0.20 0.20 100 1012.3
20260504195005 51 53 2.0 8.0 0.05 0.20 0.20 100 1012.4
20260504194505 52 52 1.0 6.0 0.07 0.20 0.20 100 1012.0
20260504194005 52 238 1.0 2.0 0.08 0.20 0.20 100 1011.4
20260504193526 52 208 1.0 3.0 0.09 0.20 0.20 100 1012.0
20260504193005 51 116 1.0 4.0 0.10 0.20 0.20 100 1012.3
20260504192526 52 102 1.0 4.0 0.10 0.19 0.19 100 1013.0
20260504192026 52 237 1.0 4.0 0.10 0.19 0.19 100 1012.9
20260504191505 52 253 2.0 6.0 0.10 0.19 0.19 100 1012.7
20260504191005 52 253 2.0 6.0 0.09 0.18 0.18 97 1012.9
20260504190505 52 246 1.0 4.0 0.09 0.17 0.17 97 1012.9
20260504190005 52 245 1.0 2.0 0.10 0.17 0.17 97 1013.0
20260504185505 52 248 1.0 3.0 0.08 0.15 0.15 96 1012.9
20260504185026 53 254 2.0 4.0 0.09 0.15 0.15 96 1012.7
20260504184526 53 255 2.0 4.0 0.07 0.13 0.13 94 1012.9
20260504184005 53 264 2.0 6.0 0.06 0.12 0.12 94 1012.6
20260504183505 53 284 3.0 6.0 0.05 0.11 0.11 93 1012.3
20260504183005 53 291 3.0 8.0 0.04 0.10 0.10 93 1012.2
20260504182505 53 299 4.0 9.0 0.03 0.09 0.09 93 1012.3
20260504182005 54 309 2.0 9.0 0.03 0.09 0.09 93 1011.9
20260504181505 55 241 1.0 4.0 0.03 0.09 0.09 95 1011.8
20260504181006 55 237 0.0 2.0 0.03 0.10 0.09 94 1011.5
20260504180505 56 192 0.0 3.0 0.02 0.09 0.08 95 1011.5
20260504180005 56 121 1.0 4.0 0.01 0.08 0.07 96 1011.5
20260504175505 56 89 1.0 4.0 0.01 0.09 0.07 95 1011.2
20260504175005 58 51 0.0 3.0 0.00 0.08 0.06 95 1010.9
20260504174526 58 199 0.0 1.0 0.00 0.08 0.06 94 1010.6
20260504174005 57 224 0.0 1.0 0.00 0.09 0.06 94 1010.5
20260504173505 58 246 0.0 1.0 0.00 0.09 0.06 94 1010.4
20260504173026 57 245 1.0 1.0 0.00 0.09 0.06 94 1010.8
20260504172505 58 249 1.0 2.0 0.00 0.09 0.06 93 1010.9
20260504172005 58 256 0.0 2.0 0.00 0.09 0.06 91 1010.7
20260504171505 58 259 0.0 2.0 0.00 0.09 0.06 90 1010.7
20260504171005 60 249 0.0 2.0 0.00 0.09 0.06 89 1010.8
20260504170525 60 227 0.0 2.0 0.00 0.09 0.06 81 1010.9
20260504151005 61 340 1.0 3.0 0.00 0.09 0.06 84 1010.9
20260504150505 62 253 0.0 3.0 0.00 0.09 0.06 80 1010.9
20260504141004 63 217 0.0 1.0 0.00 0.09 0.06 75 1011.6
20260504140504 63 212 0.0 2.0 0.00 0.09 0.06 77 1011.7
20260504130526 61 266 3.0 8.0 0.00 0.09 0.06 80 1011.4
20260504110504 64 222 1.0 3.0 0.00 0.09 0.06 75 1012.9
20260504100504 63 236 0.0 2.0 0.00 0.09 0.06 80 1013.2